XW-2D
1 40907U 15049J 16280.81697579 .00001818 00000-0 10355-3 0 9993
2 40907 97.4520 285.3547 0015342 16.7568 343.4168 15.13980217 57896
XW-2F
1 40910U 15049M 16280.81229058 .00002476 00000-0 13739-3 0 9990
2 40910 97.4548 285.6664 0016263 15.1540 345.0176 15.14579108 57788
XW-2B
1 40911U 15049N 16280.81789754 .00001850 00000-0 10539-3 0 9995
2 40911 97.4567 285.5944 0015239 17.0149 343.1590 15.13956789 57791
DCBB
1 40912U 15049P 16280.75046234 .00003172 00000-0 16538-3 0 9992
2 40912 97.4538 286.7058 0016713 10.1798 75.9886 15.16574774 57860
TW-1C
1 40926U 15051B 16280.89789441 .00011505 00000-0 30476-3 0 9995
2 40926 97.2643 316.6665 0013646 15.7223 110.0261 15.38416280 57929
TW-1A
1 40928U 15051D 16280.77938755 .00004567 00000-0 14027-3 0 9992
2 40928 97.2591 315.0291 0014726 33.5067 56.1462 15.34118625 57825
IO-86
1 40931U 15052B 16280.67055917 .00000784 00000-0 20214-4 0 9999
2 40931 6.0012 240.2798 0013903 258.9150 100.9485 14.76486931 55439
GomX-3
1 40949U 98067HA 16280.78018893 .00255194 40488-4 36538-3 0 9999
2 40949 51.6185 168.7484 0002802 182.7161 177.3837 16.04971066 57806
LQSat
1 40958U 15057A 16280.79237214 .00000159 00000-0 32667-4 0 9999
2 40958 98.0064 354.1684 0018636 153.5876 206.6286 14.72905995 53813
AO-85
1 40967U 15058D 16280.37669792 .00000277 00000-0 49591-4 0 02767
2 40967 064.7766 268.6585 0190326 169.4249 191.0946 14.75181319039675
ATHENOXAT-1
1 41168U 15077C 16280.13708738 .00003992 00000-0 19555-3 0 9995
2 41168 14.9870 223.9640 0012845 96.6861 16.5293 15.10504513 44552
ChubuSat-2
1 41338U 16012B 16279.42512534 .00000772 00000-0 54490-4 0 9992
2 41338 31.0034 290.0163 0013970 57.9312 302.2678 14.99513051 34711
ChubuSat-3
1 41339U 16012C 16280.38786944 .00000712 00000-0 49454-4 0 9996
2 41339 31.0105 283.4715 0013475 73.3393 286.8724 14.99736528 34839
Horyu-4
1 41340U 16012D 16280.19333176 .00001154 00000-0 83291-4 0 9990
2 41340 31.0052 283.7278 0014301 77.7957 282.4280 15.00226194 34837
OUFTI-1
1 41458U 16025C 16280.25096142 .00005064 00000-0 27887-3 0 9992
2 41458 98.2130 297.1159 0179347 57.6941 304.1513 15.01762848 24447
e-st@r-II
1 41459U 16025D 16280.25303993 .00004590 00000-0 25370-3 0 9996
2 41459 98.2130 297.1061 0179310 57.7425 304.1038 15.01704973 24445
AAUSAT4
1 41460U 16025E 16280.82843383 .00005568 00000-0 30767-3 0 9995
2 41460 98.2057 297.7697 0175334 54.8525 306.8994 15.02112924 24537
MinXSS
1 41474U 98067HU 16280.33095683 .00049940 00000-0 52666-3 0 9998
2 41474 51.6422 218.9147 0002544 148.9653 211.1492 15.63727898 22285
CADRE
1 41475U 98067HV 16280.85068910 .00088512 00000-0 73061-3 0 9999
2 41475 51.6365 214.1019 0003283 140.9156 219.2079 15.69570076 22391
NODES 1
1 41477U 98067HX 16280.42054431 .00030466 00000-0 35446-3 0 9997
2 41477 51.6386 219.4905 0002524 140.6620 219.4558 15.61434412 22195
NODES 2
1 41478U 98067HY 16280.80861988 .00027965 00000-0 32665-3 0 9993
2 41478 51.6384 217.5808 0002464 141.6338 218.4831 15.61379713 22257
LO-87
1 41557U 16033B 16280.81466255 .00003431 00000-0 13641-3 0 9998
2 41557 97.4894 354.1650 0014839 174.5631 306.7365 15.25895768 19771
NuSat2
1 41558U 16033C 16280.76670743 .00003449 00000-0 13768-3 0 9991
2 41558 97.4916 354.1303 0014229 173.5862 339.3385 15.25758151 19767
Lapan A3
1 41603U 16040E 16280.74304119 .00000479 00000-0 26084-4 0 9995
2 41603 97.4994 339.2149 0012255 235.1294 271.3853 15.19146413 16179
Swayam
1 41607U 16040J 16280.71111389 .00003378 00000-0 16209-3 0 9999
2 41607 97.4964 339.1619 0013523 237.7345 122.2579 15.19498955 16096
Pratham
1 41783U 16059A 16280.79772872 .00000029 00000-0 15255-4 0 9993
2 41783 98.2040 338.2852 0032485 234.2186 125.5970 14.62763674 1564
OBJECT B
1 41784U 16059B 16280.72681891 .00000220 00000-0 52194-4 0 9993
2 41784 98.2056 338.2206 0030827 234.0651 125.7666 14.63116090 1512
OBJECT C
1 41785U 16059C 16280.72608395 -.00001357 00000-0 -25239-3 0 9995
2 41785 98.2053 338.2230 0030422 234.4295 125.4036 14.63202872 1518
OBJECT D
1 41786U 16059D 16280.63037395 -.00143441 00000-0 00000 0 0 9997
2 41786 98.2277 338.2060 0001654 49.3978 310.7875 14.68829660 1384
OBJECT E
1 41787U 16059E 16280.72446916 .00000172 00000-0 42614-4 0 9995
2 41787 98.2057 338.2247 0029398 233.9481 125.8989 14.63444353 1516
OBJECT F
1 41788U 16059F 16280.58647826 .00000231 00000-0 44222-4 0 9996
2 41788 98.2045 338.0862 0028683 236.1968 123.6995 14.63621830 751
AlSat 1N
1 41789U 16059G 16280.72083002 .00000183 00000-0 44181-4 0 9993
2 41789 98.2033 338.2310 0027702 228.7910 131.0880 14.63954504 1523
ScatSat
1 41790U 16059H 16280.82119991 .00000005 00000-0 12183-4 0 9993
2 41790 98.1048 335.0623 0010472 202.0614 158.0123 14.50098797 1544
OBJECT J
1 41791U 16059J 16279.78485906 .00000031 00000-0 16366-4 0 9995
2 41791 98.2775 337.2070 0041541 243.5389 116.1540 14.60732712 1409
OBJECT K
1 41792U 16059K 16280.72016728 .00000409 00000-0 86982-4 0 9994
2 41792 98.2062 338.2359 0026740 233.8923 125.9802 14.64048678 1516
